Regional Weather Roundup
Issued by NWS Albany, NY

Home | Current Version | Previous Version | Text Only | Print | Product List | Glossary On
Versions: 1 2 3 4 5 6 7 8 9 10 11 12 13 14 15 16 17 18 19 20 21 22 23 24 25
000
ASUS41 KALY 241910
RWRALY

NEW YORK STATE HOURLY WEATHER ROUNDUP
NATIONAL WEATHER SERVICE ALBANY NY
300 PM EDT MON JUL 24 2017

NOTE: "FAIR" INDICATES FEW OR NO CLOUDS BELOW 12,000 FEET WITH NO
SIGNIFICANT WEATHER AND/OR NO OBSTRUCTIONS TO VISIBILITY.

NYZ032-033-038>043-046>054-057>066-NYZ062>081-082-084-242000-
EAST


CITY           SKY/WX    TMP DP  RH WIND       PRES   REMARKS
ALBANY         CLOUDY    63  56  78 E7        29.88F
GLENS FALLS    CLOUDY    59  55  87 N8        29.92R
POUGHKEEPSIE   CLOUDY    67  57  70 N5        29.85S
NEWBURGH       CLOUDY    66  61  82 NE12      29.87R
MONTGOMERY     CLOUDY    68  59  73 N9        29.86S
WHITE PLAINS   PTSUNNY   66  57  72 NE8       29.84S
ISLIP          CLOUDY    63  60  90 N16       29.82R
NEW YORK CITY  CLOUDY    67  60  78 N10G20    29.83S
CENTRAL PARK   CLOUDY    66  59  78 NE8       29.87S
$$

NYZ005>009-017-018-044>046-055-056-242000-
CENTRAL


CITY           SKY/WX    TMP DP  RH WIND       PRES   REMARKS
FULTON         TSTM      67  65  93 SE6       29.78R FOG
SYRACUSE       MOSUNNY   71  66  84 NE8       29.76F
ROME           CLOUDY    63  58  83 SE16G23   29.83S
ELMIRA         MOSUNNY   76  69  79 E12       29.76F
BINGHAMTON     LGT RAIN  65  65 100 VRB5      29.83R FOG
$$

NYZ026>034-041>043-087-242000-
NORTH


CITY           SKY/WX    TMP DP  RH WIND       PRES   REMARKS
WATERTOWN      CLOUDY    72  65  78 S7        29.75R
FORT DRUM      NOT AVBL
OGDENSBURG     HVY RAIN  61  60  96 E8        29.81R VSB 1
MASSENA        CLOUDY    63  61  93 NE14      29.85R
SARANAC LAKE   CLOUDY    60  60 100 SE7       29.86R
PLATTSBURGH    LGT RAIN  59  56  89 SE13      29.90F
$$

NYZ001>004-010>016-019>021-085-242000-
WEST


CITY           SKY/WX    TMP DP  RH WIND       PRES   REMARKS
NIAGARA FALLS  CLOUDY    74  59  59 SW16      29.79R
BUFFALO        PTSUNNY   72  59  63 SW18G28   29.79R
DUNKIRK        PTSUNNY   72  61  68 W17G26    29.83R
JAMESTOWN      CLOUDY    64  57  77 W14G20    29.88R
WELLSVILLE     MOSUNNY   77  60  55 NW15      29.85R
ROCHESTER      PTSUNNY   78  63  59 NW15G23   29.77R
PENN YAN       MOSUNNY   76  65  68 VRB3      29.78S
$$

             KEY
       WCI = WIND CHILL INDEX
       VSB = VISIBILITY
       HX  = HEAT INDEX
$$




USA.gov is the U.S. government's official web portal to all federal, state and local government web resources and services.